Wind_Speed
35 35 36 37 37 38 39 40 41 40 39 40 40 38 38 38 37 37 41 35 37 32 28 25 22 21 23 24 21 18 25 30 26 25 24 20 20 19 18 14 14 6 9 12 17
34 36 36 37 39 39 40 41 42 43 44 44 43 42 40 42 41 43 34 38 38 37 34 31 28 24 25 27 26 27 32 34 25 24 25 22 22 20 18 18 19 18 19 20 18
31 32 34 36 39 41 41 42 43 43 45 46 45 46 45 44 43 42 42 40 40 37 36 35 32 28 28 25 27 30 41 30 29 26 26 26 28 23 29 28 26 21 24 23 25
26 27 30 32 35 37 39 41 43 45 46 46 46 47 47 46 35 31 31 37 41 41 39 40 40 38 33 34 30 35 39 36 34 32 33 32 32 35 34 36 32 32 32 29 29
22 23 24 25 26 28 31 35 39 42 43 44 45 47 47 50 52 44 38 30 32 37 41 41 45 44 45 36 33 42 38 35 36 36 38 37 39 41 42 40 37 36 35 35 35
20 20 21 21 21 21 22 23 25 28 34 40 43 44 46 53 44 40 45 45 43 33 33 36 45 44 48 40 42 42 40 40 39 41 43 44 46 43 44 40 38 37 39 38 36
22 22 22 22 22 22 21 20 20 20 22 25 31 36 47 53 40 38 45 50 42 42 37 30 21 31 40 42 39 40 46 48 51 48 49 45 53 49 42 40 41 42 41 38 37
26 27 27 27 26 26 26 26 26 26 24 24 23 27 43 34 35 42 43 43 38 44 47 39 28 29 32 38 38 42 45 55 54 50 55 46 58 52 41 37 38 37 37 39 37
26 26 26 27 28 29 28 28 29 28 28 26 23 28 32 18 21 26 33 39 36 39 40 45 41 39 25 30 38 44 46 51 55 51 48 44 48 50 44 41 42 40 36 37 37
27 28 28 29 27 27 25 24 23 24 27 25 16 16 10 9 7 7 6 12 25 35 33 29 29 35 33 36 46 44 47 55 50 41 38 42 45 47 42 39 43 40 42 35 38
29 28 27 27 26 26 24 22 15 22 14 11 16 23 14 8 10 10 10 12 13 17 29 27 29 44 67 54 48 40 50 51 45 37 36 38 43 47 43 41 42 41 40 41 39
29 28 27 25 21 21 22 21 17 21 33 30 32 35 34 26 33 29 21 21 19 21 20 28 49 64 38 40 40 45 48 48 45 36 35 37 40 42 42 41 40 38 40 35 36
28 25 23 20 21 22 20 15 24 21 28 37 23 33 30 24 31 28 24 27 28 25 25 33 56 37 38 39 43 47 50 45 46 35 39 38 41 42 43 42 39 37 37 37 38
27 25 25 22 23 17 9 18 17 18 18 13 1 5 6 15 24 24 23 28 29 33 27 33 34 41 40 44 45 48 45 38 38 34 40 32 30 46 43 40 38 35 34 35 34
27 27 26 25 24 15 17 15 15 11 6 10 6 3 4 8 8 6 11 19 30 29 26 49 32 34 42 53 39 57 33 36 36 40 36 36 31 59 30 33 28 29 32 32 31
27 26 24 25 22 19 19 14 11 7 5 13 16 21 16 13 15 5 8 11 15 23 29 40 33 35 38 40 42 36 38 36 37 37 26 43 37 51 37 35 32 31 33 32 28
27 27 24 21 20 21 19 13 8 5 16 12 21 20 19 16 18 12 12 14 13 12 25 31 34 36 36 35 38 42 38 25 24 23 23 34 38 45 39 31 29 31 29 23 20
26 25 24 31 26 21 19 11 6 16 19 21 23 21 21 19 19 17 12 16 17 20 25 25 26 33 38 43 37 46 47 27 24 17 21 38 34 45 44 30 21 15 16 11 15
22 23 28 23 22 18 14 7 11 18 21 24 25 21 20 19 19 18 20 21 19 13 14 13 17 27 29 38 39 38 52 48 37 34 24 29 33 41 29 25 23 13 12 13 19
19 22 20 23 20 14 12 11 13 19 19 21 22 23 28 26 14 11 14 9 15 8 10 14 25 29 26 35 42 43 35 46 41 25 22 27 35 27 18 25 19 19 17 21 18
18 14 22 28 17 12 11 14 20 18 20 19 21 22 21 23 21 19 11 19 15 9 9 16 17 40 23 27 44 41 45 45 40 33 16 14 20 15 17 14 6 16 19 24 18
16 10 24 29 15 16 14 19 23 18 18 17 17 16 20 20 27 24 18 6 3 9 13 15 13 30 33 26 27 46 40 37 32 34 35 27 28 5 10 10 9 14 22 25 20
19 10 22 24 15 21 20 21 16 18 16 19 18 20 18 18 16 10 11 6 13 16 9 9 11 19 25 29 28 30 47 42 37 27 32 23 26 7 4 11 12 20 24 28 21
22 15 14 12 12 21 22 17 19 18 18 18 21 19 19 21 22 12 17 8 12 14 15 18 16 20 18 23 14 15 29 47 45 38 32 36 10 5 12 16 15 27 27 25 21
22 16 16 21 21 17 16 21 22 22 19 19 20 16 22 26 22 20 18 17 14 19 9 13 15 17 23 30 26 22 28 40 51 43 40 35 31 6 17 16 18 21 20 20 23
20 22 24 23 14 16 15 19 18 23 24 21 20 23 22 23 23 28 22 18 20 14 12 12 12 18 22 18 26 36 30 25 48 39 45 38 25 20 25 18 14 18 20 22 24
24 25 27 27 19 19 19 19 23 24 18 22 22 26 23 19 25 27 25 24 23 23 20 18 14 26 9 13 12 22 29 25 41 40 42 27 21 27 20 13 13 15 18 22 21
Wind_Direction
273 272 270 269 268 268 269 268 267 267 267 267 266 262 259 258 257 256 254 256 252 251 253 255 254 253 252 242 223 232 245 247 245 252 261 269 275 283 267 259 256 264 246 258 279
275 274 273 272 270 268 267 267 266 266 265 263 263 264 263 260 258 255 262 255 251 247 246 248 254 251 248 246 240 224 231 239 244 250 263 262 265 272 270 277 259 270 272 282 277
279 278 277 275 272 272 270 269 267 266 264 264 265 265 264 264 263 267 258 253 252 249 244 241 239 244 242 236 233 232 239 240 248 251 258 270 265 274 273 271 270 262 280 272 280
287 284 282 279 276 273 271 270 268 268 267 265 263 261 261 261 264 259 260 259 249 247 243 238 235 233 233 236 233 239 241 245 251 253 261 265 270 275 277 278 273 273 279 274 285
303 300 296 291 287 283 279 274 271 268 267 267 266 263 259 258 251 251 251 251 248 244 243 240 236 234 235 235 236 239 245 247 251 255 259 268 270 277 275 274 271 272 271 273 278
315 312 309 304 300 293 289 286 283 277 272 267 263 262 261 255 255 251 254 245 243 240 242 238 237 235 241 239 235 244 250 251 253 257 261 263 269 273 271 272 272 272 273 274 272
325 321 317 313 308 304 302 298 294 291 287 281 275 269 259 256 252 252 250 247 241 241 237 228 239 237 239 244 242 249 253 255 253 256 259 265 270 267 270 269 269 269 271 272 272
329 325 322 317 310 305 302 301 299 296 293 287 284 277 267 272 265 245 245 246 243 238 232 223 203 225 240 248 247 248 251 257 253 254 254 259 265 266 263 268 268 271 272 271 273
335 330 324 318 315 312 310 309 307 304 303 295 291 284 292 283 263 264 247 248 240 236 236 236 226 224 238 238 242 239 245 247 253 249 257 254 262 265 265 264 265 268 270 268 268
336 331 327 325 323 318 317 316 316 311 306 301 289 286 324 322 224 277 245 267 243 231 232 231 230 233 235 224 227 225 234 241 251 252 254 250 255 264 266 263 265 268 266 265 270
335 329 326 324 323 322 323 319 308 319 304 266 271 273 211 266 270 246 281 258 253 233 232 221 219 220 228 224 231 235 240 247 253 252 253 254 259 265 267 266 267 268 261 269 268
340 335 331 330 332 330 327 328 320 303 293 282 278 271 266 267 262 252 254 246 240 244 232 216 223 232 232 232 235 237 245 250 256 253 257 261 262 265 263 262 264 264 267 270 268
346 343 339 337 334 333 340 327 315 326 296 297 284 262 256 255 260 258 246 241 239 239 229 224 232 236 232 234 234 236 239 245 251 257 259 264 268 267 263 263 264 263 266 267 268
352 347 345 345 337 337 357 299 331 299 299 342 316 4 249 243 253 251 248 240 237 238 234 238 242 234 234 233 230 238 235 244 251 252 256 257 268 263 265 264 263 265 267 269 272
353 352 345 346 338 326 325 323 308 330 276 32 78 56 273 253 265 265 230 225 235 236 232 239 237 235 233 232 230 239 238 242 248 250 258 256 259 263 263 266 264 265 265 267 268
356 353 346 342 345 332 320 318 323 284 237 6 353 343 340 283 263 268 242 217 235 240 240 247 243 239 237 240 235 242 240 244 249 253 249 245 246 264 262 266 272 272 272 270 263
357 354 353 351 351 339 334 315 308 261 342 4 342 337 323 300 294 262 264 250 228 256 242 253 246 240 237 242 230 229 234 233 240 236 244 246 245 256 265 265 268 274 273 273 247
360 358 1 11 343 350 355 332 299 350 349 346 344 331 316 310 282 277 273 272 258 255 264 271 271 234 228 231 231 221 227 222 219 221 240 245 250 259 253 258 265 276 243 249 233
1 8 14 335 348 348 5 346 336 340 344 340 340 334 328 331 314 296 273 262 265 286 252 289 270 247 243 231 227 234 221 225 242 235 249 246 240 255 252 246 245 246 222 204 205
359 10 0 343 345 346 344 332 318 331 334 335 332 321 313 321 310 300 279 290 266 248 291 291 285 269 270 225 228 228 224 222 229 232 242 234 248 269 206 229 234 224 208 199 208
356 358 332 345 358 344 337 318 326 330 328 328 320 316 317 317 317 312 253 263 248 244 260 278 271 267 271 244 217 224 230 220 231 225 235 248 258 260 194 196 217 206 194 202 217
344 342 300 324 338 343 324 324 315 326 323 324 319 316 314 315 309 301 291 308 320 282 281 278 266 265 258 254 227 225 223 222 220 221 227 245 247 217 201 221 204 204 190 201 213
353 332 315 341 334 326 329 328 328 333 329 323 318 309 314 314 315 283 296 340 297 292 277 289 245 268 257 268 242 235 222 226 229 229 216 234 249 205 183 172 190 179 176 198 205
357 332 324 312 294 319 323 330 322 325 323 325 315 311 309 314 315 306 300 306 315 298 291 264 267 256 268 247 312 242 238 222 224 216 220 225 211 184 177 162 149 160 173 195 202
357 345 317 318 321 309 321 311 321 333 330 326 319 318 319 317 313 311 318 325 315 309 288 261 278 288 274 260 273 288 260 230 219 209 219 225 212 212 178 158 174 162 180 185 184
343 338 333 342 326 314 299 330 320 325 325 322 321 316 311 305 303 307 301 301 304 298 295 295 296 293 279 249 257 276 261 241 214 201 213 227 210 180 130 136 171 163 171 172 176
347 347 340 353 340 321 322 311 313 320 322 317 314 312 319 323 311 289 278 278 267 271 274 285 291 317 258 213 250 277 220 230 205 203 206 214 185 157 133 154 128 156 168 167 180
Height
3114 3113 3112 3111 3110 3109 3108 3108 3108 3108 3108 3109 3111 3114 3116 3117 3120 3120 3122 3133 3132 3135 3137 3139 3140 3142 3143 3144 3147 3150 3151 3147 3147 3148 3147 3148 3150 3150 3150 3148 3150 3151 3151 3152 3153
3108 3107 3106 3104 3103 3102 3102 3101 3100 3100 3100 3102 3103 3104 3106 3109 3111 3109 3121 3120 3125 3127 3130 3134 3136 3139 3137 3139 3142 3143 3141 3140 3144 3143 3144 3145 3146 3147 3147 3147 3147 3147 3148 3148 3149
3101 3100 3098 3097 3096 3094 3094 3094 3093 3093 3093 3092 3093 3094 3096 3099 3102 3103 3105 3111 3114 3119 3124 3127 3129 3132 3131 3135 3138 3139 3130 3137 3139 3141 3141 3141 3141 3142 3142 3144 3143 3142 3144 3144 3143
3095 3093 3091 3090 3088 3087 3086 3086 3085 3084 3084 3085 3086 3087 3088 3091 3099 3092 3095 3099 3105 3110 3113 3116 3120 3121 3125 3127 3133 3133 3129 3133 3135 3136 3136 3135 3137 3135 3136 3136 3139 3139 3139 3139 3136
3090 3088 3086 3084 3082 3080 3078 3077 3076 3076 3075 3075 3075 3076 3079 3080 3082 3087 3089 3092 3095 3099 3103 3108 3110 3114 3112 3122 3128 3121 3124 3129 3129 3131 3130 3131 3129 3129 3128 3132 3131 3131 3132 3131 3131
3086 3083 3081 3079 3077 3075 3073 3071 3069 3068 3066 3065 3065 3066 3066 3066 3075 3080 3077 3084 3086 3091 3095 3098 3100 3107 3108 3111 3116 3118 3121 3120 3122 3123 3123 3124 3122 3125 3123 3126 3125 3125 3124 3124 3125
3082 3080 3078 3075 3072 3069 3068 3066 3064 3062 3060 3058 3056 3055 3052 3052 3064 3067 3065 3070 3078 3083 3087 3091 3097 3100 3102 3102 3108 3114 3113 3112 3110 3116 3113 3120 3109 3113 3117 3119 3117 3118 3117 3117 3117
3078 3075 3072 3069 3067 3065 3063 3061 3058 3056 3055 3054 3053 3049 3038 3051 3049 3053 3057 3059 3067 3071 3074 3079 3086 3089 3094 3099 3104 3104 3107 3097 3100 3109 3102 3116 3098 3105 3110 3111 3109 3110 3110 3109 3109
3076 3073 3069 3065 3062 3058 3056 3054 3050 3048 3046 3045 3046 3042 3038 3041 3041 3042 3046 3048 3056 3062 3065 3070 3078 3080 3086 3090 3094 3092 3089 3089 3089 3096 3101 3103 3096 3095 3102 3103 3100 3101 3101 3101 3101
3075 3070 3066 3062 3058 3055 3053 3050 3046 3043 3039 3038 3039 3039 3036 3037 3039 3041 3043 3044 3046 3052 3057 3062 3068 3072 3077 3078 3068 3076 3083 3074 3080 3091 3093 3092 3090 3087 3092 3094 3092 3092 3092 3092 3091
3073 3068 3064 3060 3056 3052 3050 3047 3048 3044 3036 3038 3041 3031 3034 3038 3040 3040 3043 3043 3045 3046 3047 3055 3063 3053 3039 3057 3066 3077 3073 3071 3076 3082 3085 3085 3083 3078 3084 3085 3083 3084 3083 3082 3085
3071 3066 3061 3057 3054 3051 3047 3044 3044 3041 3028 3029 3027 3023 3025 3030 3028 3033 3040 3041 3041 3040 3044 3051 3040 3026 3062 3061 3067 3067 3066 3066 3071 3076 3079 3076 3073 3072 3074 3074 3076 3076 3076 3075 3077
3070 3065 3060 3056 3052 3048 3045 3045 3038 3035 3029 3015 3010 3011 3016 3024 3021 3024 3031 3032 3033 3035 3037 3039 3022 3052 3053 3056 3058 3056 3055 3063 3064 3073 3070 3069 3066 3064 3064 3066 3067 3067 3068 3068 3067
3068 3063 3058 3055 3051 3048 3047 3041 3038 3033 3026 3012 3011 3013 3015 3018 3018 3020 3022 3025 3027 3027 3033 3032 3035 3037 3043 3043 3047 3046 3052 3062 3062 3067 3056 3068 3054 3050 3056 3057 3058 3059 3059 3058 3058
3067 3062 3057 3052 3050 3045 3042 3038 3036 3033 3025 3016 3014 3016 3014 3018 3017 3017 3017 3019 3019 3023 3032 3012 3025 3031 3032 3025 3046 3029 3058 3055 3056 3055 3058 3058 3056 3019 3049 3048 3051 3052 3051 3051 3052
3065 3061 3055 3050 3045 3043 3040 3035 3033 3033 3024 3020 3017 3015 3015 3012 3011 3011 3014 3015 3017 3019 3019 3013 3021 3023 3023 3030 3036 3042 3046 3050 3050 3050 3045 3041 3050 3019 3041 3043 3044 3044 3043 3043 3043
3064 3060 3054 3050 3046 3042 3036 3036 3034 3029 3023 3023 3018 3015 3014 3015 3012 3012 3011 3012 3012 3013 3011 3009 3012 3014 3020 3022 3028 3033 3038 3040 3043 3037 3023 3038 3038 3025 3033 3036 3037 3035 3035 3035 3037
3064 3059 3055 3047 3046 3041 3036 3036 3034 3029 3025 3021 3018 3015 3012 3011 3010 3008 3009 3008 3008 3009 3008 3007 3006 3005 3008 3010 3017 3022 3026 3024 3023 3021 3022 3031 3022 3019 3022 3028 3029 3029 3028 3029 3031
3064 3058 3053 3051 3047 3042 3040 3038 3036 3031 3029 3023 3018 3015 3014 3010 3007 3004 3006 3005 3005 3006 3007 3003 2999 2999 3003 3008 3013 3012 3016 3016 3022 3020 3020 3012 3013 3011 3017 3020 3023 3025 3026 3028 3027
3063 3058 3055 3052 3046 3043 3041 3039 3035 3032 3028 3025 3022 3022 3015 3009 3008 3006 3004 3003 3004 3002 3003 3002 2999 2993 2991 2999 3000 3004 3011 3014 3014 3014 3010 3010 3009 3005 3007 3012 3016 3019 3023 3023 3024
3063 3059 3055 3052 3046 3045 3041 3038 3034 3031 3028 3025 3022 3019 3016 3011 3006 3004 3003 3001 3001 3001 3000 3002 3001 2982 2990 2985 2992 2998 2996 3003 3010 3010 3007 3007 3003 3001 3000 3007 3011 3014 3019 3020 3023
3063 3062 3054 3054 3049 3044 3041 3038 3034 3028 3027 3024 3021 3018 3014 3011 3006 3000 2999 2997 2997 2997 2996 2998 2992 2984 2984 2981 2990 2993 2992 2996 2997 3001 3006 3007 3002 2998 3000 3004 3009 3012 3015 3017 3022
3062 3062 3054 3050 3047 3044 3040 3037 3033 3028 3025 3021 3019 3016 3012 3009 3003 2997 2995 2991 2994 2993 2992 2990 2987 2983 2981 2982 2977 2981 2985 2990 2997 3004 3002 3003 3001 2998 3000 3004 3007 3009 3013 3016 3021
3061 3059 3057 3051 3049 3043 3038 3034 3031 3028 3023 3020 3017 3013 3009 3004 3001 2997 2992 2989 2990 2989 2987 2986 2984 2985 2978 2976 2982 2977 2980 2984 2991 2994 2996 2997 2998 2999 3000 3002 3005 3008 3011 3015 3020
3061 3058 3055 3048 3043 3040 3037 3033 3028 3025 3023 3018 3013 3011 3007 3002 2998 2995 2992 2990 2988 2984 2982 2982 2981 2980 2975 2976 2979 2980 2975 2978 2980 2987 2993 2991 2994 2999 3000 3000 3004 3008 3011 3014 3018
3061 3056 3051 3045 3042 3039 3034 3031 3027 3023 3020 3014 3011 3007 3004 3000 2997 2990 2989 2988 2985 2981 2979 2979 2977 2971 2967 2972 2975 2972 2967 2966 2974 2983 2990 2990 2991 2996 2995 3000 3003 3007 3009 3013 3018
3058 3053 3047 3043 3040 3038 3033 3027 3024 3020 3015 3014 3009 3002 2999 2995 2989 2983 2981 2979 2978 2978 2978 2978 2974 2968 2964 2969 2972 2970 2957 2961 2967 2977 2982 2990 2991 2989 2997 3005 3005 3006 3011 3015 3019